Andrews, NC

7:50 AM EDT on April 25, 2017 (GMT -0400)
Andrews

Weather History for KRHP - January, 2013

Change the Weather History Date:

Monday, January 21, 2013

  Actual Average (KMMI) Record (KMMI)
Temperature  
Mean Temperature 37 °F -  
Max Temperature 51 °F 44 °F 51 °F (2015)
Min Temperature 23 °F 25 °F 17 °F (2014)
Degree Days  
Heating Degree Days 28    
Moisture  
Dew Point 23 °F    
Average Humidity 69    
Maximum Humidity 99    
Minimum Humidity 32    
Precipitation  
Precipitation 0.00 in - - ()
Sea Level Pressure  
Sea Level Pressure 30.10 in    
Wind  
Wind Speed 3 mph (WSW)    
Max Wind Speed 18 mph    
Max Gust Speed 23 mph    
Visibility 10 miles    
Events      
Averages and records for this station are not official NWS values.
T = Trace of Precipitation, MM = Missing Value Source: NWS Daily Summary

Daily Weather History Graph

Daily Weather History Graph

Search for Another Location

Airport or City:

Trip Planner

Search our weather history database for the weather conditions in past years. The results will help you decide how hot, cold, wet, or windy it might be!

Date:

Astronomy

Jan. 21, 2013 Rise Set
Actual Time 7:41 AM EST 5:52 PM EST
Civil Twilight 7:13 AM EST 6:20 PM EST
Nautical Twilight 6:43 AM EST 6:51 PM EST
Astronomical Twilight 6:12 AM EST 7:21 PM EST
Moon 1:32 PM EST (1/21) 3:08 AM EST (1/21)
Length of Visible Light 11h 06m
Length of Day
10h 11m
Waxing Gibbous, 75% of the Moon is Illuminated
Jan 21
Waxing Gibbous
Jan 26
Full
Feb 3
Last Quarter
Feb 10
New
Feb 17
First Quarter

Hourly Weather History & Observations

Time (EST) Temp. Windchill Dew Point Humidity Pressure Visibility Wind Dir Wind Speed Gust Speed Precip Events Conditions
12:15 AM 29.5 °F - 28.8 °F 97% 30.12 in 10.0 mi Calm Calm - N/A   Clear
12:35 AM 28.4 °F - 27.5 °F 96% 30.12 in 10.0 mi Calm Calm - N/A   Clear
12:55 AM 28.6 °F - 28.2 °F 99% 30.12 in 7.0 mi Calm Calm - N/A   Clear
1:15 AM 28.8 °F - 27.3 °F 94% 30.12 in 10.0 mi Calm Calm - N/A   Clear
1:35 AM 27.5 °F - 26.4 °F 96% 30.12 in 10.0 mi Calm Calm - N/A   Clear
1:55 AM 28.4 °F - 28.0 °F 99% 30.12 in 7.0 mi Calm Calm - N/A   Clear
2:15 AM 27.5 °F - 27.1 °F 99% 30.12 in 7.0 mi Calm Calm - N/A   Clear
2:35 AM 27.3 °F - 26.2 °F 96% 30.12 in 10.0 mi Calm Calm - N/A   Clear
2:55 AM 26.8 °F - 26.2 °F 98% 30.12 in 10.0 mi Calm Calm - N/A   Clear
3:15 AM 28.0 °F - 27.3 °F 97% 30.11 in 10.0 mi Calm Calm - N/A   Clear
3:35 AM 26.8 °F - 26.2 °F 98% 30.11 in 7.0 mi Calm Calm - N/A   Clear
3:55 AM 26.2 °F - 25.3 °F 96% 30.11 in 10.0 mi Calm Calm - N/A   Clear
4:15 AM 25.9 °F - 25.5 °F 99% 30.11 in 7.0 mi Calm Calm - N/A   Clear
4:35 AM 25.2 °F - 24.4 °F 97% 30.11 in 10.0 mi Calm Calm - N/A   Clear
4:55 AM 25.2 °F - 24.4 °F 97% 30.10 in 7.0 mi Calm Calm - N/A   Clear
5:15 AM 26.6 °F - 25.9 °F 97% 30.10 in 10.0 mi Calm Calm - N/A   Clear
5:35 AM 25.7 °F - 24.4 °F 95% 30.09 in 10.0 mi Calm Calm - N/A   Clear
5:55 AM 25.2 °F - 24.3 °F 96% 30.09 in 7.0 mi Calm Calm - N/A   Clear
6:15 AM 25.0 °F - 24.4 °F 98% 30.10 in 5.0 mi Calm Calm - N/A   Clear
6:35 AM 23.9 °F - 23.4 °F 98% 30.11 in 5.0 mi Calm Calm - N/A   Clear
6:55 AM 25.5 °F - 24.3 °F 95% 30.10 in 10.0 mi Calm Calm - N/A   Clear
7:15 AM 24.4 °F - 23.9 °F 98% 30.11 in 10.0 mi Calm Calm - N/A   Clear
7:35 AM 24.1 °F - 22.8 °F 95% 30.11 in 10.0 mi Calm Calm - N/A   Clear
7:55 AM 23.9 °F 19.5 °F 23.0 °F 96% 30.11 in 10.0 mi ESE 3.5 mph - N/A   Clear
8:15 AM 24.4 °F - 23.4 °F 96% 30.12 in 10.0 mi Calm Calm - N/A   Clear
8:35 AM 26.4 °F - 25.5 °F 96% 30.12 in 10.0 mi Calm Calm - N/A   Clear
8:55 AM 27.9 °F - 26.8 °F 96% 30.12 in 10.0 mi Calm Calm - N/A   Clear
9:15 AM 28.9 °F - 27.3 °F 94% 30.13 in 10.0 mi Calm Calm - N/A   Clear
9:35 AM 31.1 °F - 28.9 °F 92% 30.13 in 10.0 mi Calm Calm - N/A   Clear
9:55 AM 32.5 °F - 30.4 °F 92% 30.13 in 10.0 mi Calm Calm - N/A   Clear
10:15 AM 34.0 °F - 30.6 °F 87% 30.12 in 10.0 mi Calm Calm - N/A   Clear
10:55 AM 39.2 °F - 31.3 °F 73% 30.13 in 10.0 mi Calm Calm - N/A   Clear
11:15 AM 41.9 °F 40.0 °F 30.7 °F 65% 30.12 in 10.0 mi WSW 3.5 mph - N/A   Clear
11:35 AM 43.5 °F 40.9 °F 31.6 °F 63% 30.11 in 10.0 mi West 4.6 mph - N/A   Clear
11:55 AM 45.7 °F 44.4 °F 32.2 °F 59% 30.09 in 10.0 mi West 3.5 mph - N/A   Clear
12:15 PM 48.2 °F - 29.7 °F 49% 30.07 in 10.0 mi SSW 4.6 mph - N/A   Clear
12:35 PM 50.7 °F - 29.1 °F 43% 30.06 in 10.0 mi SW 11.5 mph 16.1 mph N/A   Scattered Clouds
12:55 PM 51.1 °F - 27.0 °F 39% 30.05 in 10.0 mi WSW 15.0 mph 20.7 mph N/A   Scattered Clouds
1:15 PM 50.7 °F - 25.7 °F 38% 30.05 in 10.0 mi SW 10.4 mph 19.6 mph N/A   Scattered Clouds
1:35 PM 50.4 °F - 25.5 °F 38% 30.05 in 10.0 mi SW 11.5 mph 17.3 mph N/A   Scattered Clouds
1:55 PM 50.2 °F - 26.4 °F 40% 30.04 in 10.0 mi SW 12.7 mph 18.4 mph N/A   Scattered Clouds
2:15 PM 49.8 °F - 26.8 °F 41% 30.05 in 10.0 mi WSW 18.4 mph 23.0 mph N/A   Clear
2:35 PM 49.3 °F - 25.7 °F 40% 30.06 in 10.0 mi WSW 15.0 mph 20.7 mph N/A   Clear
2:55 PM 48.6 °F - 23.7 °F 38% 30.06 in 10.0 mi SW 11.5 mph 18.4 mph N/A   Clear
3:15 PM 48.0 °F - 21.7 °F 36% 30.06 in 10.0 mi West 11.5 mph 20.7 mph N/A   Clear
3:35 PM 47.5 °F - 20.5 °F 34% 30.07 in 10.0 mi NW 12.7 mph 20.7 mph N/A   Clear
3:55 PM 46.6 °F - 18.3 °F 32% 30.08 in 10.0 mi West 11.5 mph 20.7 mph N/A   Clear
4:15 PM 46.0 °F 40.6 °F 19.4 °F 35% 30.08 in 10.0 mi WSW 11.5 mph - N/A   Clear
4:35 PM 45.5 °F 38.3 °F 17.6 °F 33% 30.08 in 10.0 mi West 17.3 mph 21.9 mph N/A   Clear
4:55 PM 44.6 °F 41.4 °F 16.2 °F 32% 30.09 in 10.0 mi WSW 5.8 mph 17.3 mph N/A   Clear
5:15 PM 43.2 °F 37.0 °F 16.9 °F 35% 30.09 in 10.0 mi WSW 11.5 mph 17.3 mph N/A   Clear
5:35 PM 41.0 °F 33.5 °F 17.6 °F 39% 30.09 in 10.0 mi WSW 13.8 mph - N/A   Clear
5:55 PM 38.7 °F 30.9 °F 16.7 °F 41% 30.10 in 10.0 mi WSW 12.7 mph - N/A   Clear
6:15 PM 37.6 °F 33.1 °F 15.8 °F 41% 30.10 in 10.0 mi WSW 5.8 mph - N/A   Clear
6:35 PM 36.3 °F 32.5 °F 16.0 °F 44% 30.10 in 10.0 mi WSW 4.6 mph - N/A   Clear
6:55 PM 33.4 °F 28.1 °F 18.9 °F 55% 30.11 in 10.0 mi WSW 5.8 mph - N/A   Clear
7:15 PM 33.4 °F 28.1 °F 18.7 °F 55% 30.12 in 10.0 mi WSW 5.8 mph - N/A   Clear
7:55 PM 32.9 °F 26.7 °F 17.6 °F 53% 30.11 in 10.0 mi WSW 6.9 mph - N/A   Clear
8:15 PM 31.6 °F 25.1 °F 19.0 °F 60% 30.11 in 10.0 mi SW 6.9 mph - N/A   Clear
8:35 PM 31.1 °F 26.4 °F 18.9 °F 61% 30.11 in 10.0 mi West 4.6 mph - N/A   Clear
8:55 PM 32.5 °F 27.1 °F 16.0 °F 51% 30.12 in 10.0 mi West 5.8 mph - N/A   Clear
9:15 PM 30.6 °F 23.1 °F 17.8 °F 59% 30.12 in 10.0 mi WSW 8.1 mph - N/A   Clear
9:35 PM 31.1 °F 24.5 °F 17.1 °F 56% 30.12 in 10.0 mi WSW 6.9 mph - N/A   Clear
9:55 PM 31.6 °F 23.1 °F 16.9 °F 54% 30.12 in 10.0 mi WSW 10.4 mph - N/A   Clear
10:15 PM 31.8 °F 22.3 °F 15.3 °F 50% 30.13 in 10.0 mi WSW 12.7 mph - N/A   Clear
10:35 PM 31.3 °F 21.1 °F 13.6 °F 48% 30.13 in 10.0 mi WSW 13.8 mph - N/A   Clear
10:55 PM 30.6 °F 21.8 °F 14.0 °F 50% 30.13 in 10.0 mi West 10.4 mph - N/A   Clear
11:15 PM 29.8 °F 22.2 °F 14.5 °F 53% 30.14 in 10.0 mi WSW 8.1 mph - N/A   Clear
11:35 PM 28.6 °F 21.5 °F 14.7 °F 56% 30.14 in 10.0 mi WSW 6.9 mph - N/A   Clear
11:55 PM 28.8 °F 22.6 °F 13.1 °F 52% 30.13 in 10.0 mi West 5.8 mph - N/A   Clear